Date String (YYYY-MM-DD hh:mm:ss) UTC,Instrument flags,absolute air pressure of the measurement (hPa),sample flow rate (lpm),inlet stack bypass flow (lpm),air temperature of the measurement (°C),ambient temperature measured by the external sensor (°C),aerosol sample conditioner tube jacket temperature (°C),OPC LED temperature (°C),internal box temperature (°C),relative humidity of the measurement (%),span deviation,mass concentration of particles derived from Lorenz-Mie calculation of OPC scattering (μg/m³),mass concentration of particles derived from Lorenz-Mie calculation of OPC scattering (μg/m³),mass concentration of particles derived from Lorenz-Mie calculation of OPC scattering (μg/m³)
DateTimeUTC,F1_M11,P_M11,Q1_M11,Q2_M11,T1_M11,T2_M11,T3_M11,T4_M11,T5_M11,U1_M11,ZSPAN_M11,X2_M11,X0_M11,X1_M11
2023-11-25 23:00:00,SystemResetWarning,0828.0,4.99,000.00,019.0,018.3,000.0,027.3,020.2,12.4,0001.2,0007.25,0009.44,0006.84
2023-11-25 23:01:00,SystemResetWarning,0828.1,5.00,000.00,019.0,018.3,000.0,027.3,020.2,12.4,0001.5,0007.24,0009.40,0006.83
2023-11-25 23:02:00,SystemResetWarning,0828.1,5.00,000.00,019.0,018.2,000.0,027.3,020.2,12.3,0001.0,0007.25,0009.46,0006.83
2023-11-25 23:03:00,SystemResetWarning,0828.1,5.00,000.00,019.0,018.2,000.0,027.3,020.1,12.4,0000.9,0007.25,0009.46,0006.84
2023-11-25 23:04:00,SystemResetWarning,0828.1,5.00,000.00,019.0,018.2,000.0,027.3,020.1,12.4,0001.3,0007.27,0009.46,0006.85
2023-11-25 23:05:00,SystemResetWarning,0828.2,5.00,000.00,019.0,018.2,000.0,027.3,020.1,12.4,0001.7,0007.23,0009.38,0006.84
2023-11-25 23:06:00,SystemResetWarning,0828.1,5.00,000.00,019.0,018.2,000.0,027.3,020.1,12.5,0001.3,0007.22,0009.55,0006.84
2023-11-25 23:07:00,SystemResetWarning,0828.1,5.00,000.00,019.0,018.2,000.0,027.3,020.1,12.5,0001.3,0007.24,0009.60,0006.86
2023-11-25 23:08:00,SystemResetWarning,0828.1,5.00,000.00,019.0,018.2,000.0,027.3,020.1,12.5,0001.5,0007.28,0009.75,0006.88
2023-11-25 23:09:00,SystemResetWarning,0828.1,5.01,000.00,019.0,018.2,000.0,027.3,020.1,12.6,0001.3,0007.30,0010.21,0006.88
2023-11-25 23:10:00,SystemResetWarning,0828.1,5.00,000.00,019.0,018.2,000.0,027.3,020.2,12.6,0001.3,0007.26,0010.55,0006.88
2023-11-25 23:11:00,SystemResetWarning,0828.0,5.00,000.00,019.0,018.2,000.0,027.3,020.2,12.6,0001.3,0007.23,0010.66,0006.89
2023-11-25 23:12:00,SystemResetWarning,0828.1,5.00,000.00,019.0,018.2,000.0,027.3,020.2,12.6,0001.4,0007.27,0011.20,0006.90
2023-11-25 23:13:00,SystemResetWarning,0828.1,5.00,000.00,019.0,018.2,000.0,027.3,020.1,12.6,0002.1,0007.25,0011.19,0006.89
2023-11-25 23:14:00,SystemResetWarning,0828.1,5.00,000.00,019.0,018.2,000.0,027.3,020.1,12.6,0002.4,0007.26,0011.21,0006.90
2023-11-25 23:15:00,SystemResetWarning,0828.0,5.01,000.00,018.9,018.1,000.0,027.3,020.1,12.6,0002.3,0007.26,0011.25,0006.91
2023-11-25 23:16:00,SystemResetWarning,0828.0,5.00,000.00,018.9,018.1,000.0,027.3,020.0,12.6,0001.9,0007.23,0011.20,0006.90
2023-11-25 23:17:00,SystemResetWarning,0828.1,5.00,000.00,018.9,018.1,000.0,027.3,020.0,12.6,0001.8,0007.24,0011.00,0006.89
2023-11-25 23:18:00,SystemResetWarning,0828.1,4.99,000.00,018.9,018.0,000.0,027.3,020.1,12.6,0002.0,0007.24,0011.03,0006.89
2023-11-25 23:19:00,SystemResetWarning,0828.1,4.99,000.00,018.9,018.0,000.0,027.3,020.0,12.6,0002.0,0007.22,0010.96,0006.88
2023-11-25 23:20:00,SystemResetWarning,0828.1,5.00,000.00,018.9,018.0,000.0,027.2,020.0,12.5,0002.3,0007.19,0010.50,0006.86
2023-11-25 23:21:00,SystemResetWarning,0828.1,5.01,000.00,018.9,018.0,000.0,027.2,020.0,12.5,0002.2,0007.21,0010.15,0006.86
2023-11-25 23:22:00,SystemResetWarning,0828.1,5.01,000.00,018.9,018.0,000.0,027.2,020.0,12.5,0002.3,0007.23,0010.04,0006.86
2023-11-25 23:23:00,SystemResetWarning,0828.1,5.00,000.00,018.9,018.0,000.0,027.2,020.0,12.5,0002.1,0007.23,0009.61,0006.84
2023-11-25 23:24:00,SystemResetWarning,0828.1,4.99,000.00,018.9,018.0,000.0,027.2,020.0,12.5,0001.8,0007.25,0009.57,0006.85
2023-11-25 23:25:00,SystemResetWarning,0828.2,4.99,000.00,018.9,018.0,000.0,027.2,020.0,12.5,0001.4,0007.24,0009.61,0006.83
2023-11-25 23:26:00,SystemResetWarning,0828.1,5.00,000.00,018.9,018.0,000.0,027.2,020.0,12.5,0001.2,0007.23,0009.55,0006.82
2023-11-25 23:27:00,SystemResetWarning,0828.2,5.01,000.00,018.8,018.0,000.0,027.2,020.0,12.4,0001.6,0007.21,0009.50,0006.82
2023-11-25 23:28:00,SystemResetWarning,0828.2,5.00,000.00,018.8,017.9,000.0,027.2,020.0,12.4,0001.0,0007.22,0009.52,0006.83
2023-11-25 23:29:00,SystemResetWarning,0828.2,5.00,000.00,018.8,017.9,000.0,027.2,020.0,12.4,0001.4,0007.22,0009.51,0006.83
2023-11-25 23:30:00,SystemResetWarning,0828.3,4.99,000.00,018.8,017.9,000.0,027.2,020.0,12.4,0001.6,0007.23,0009.44,0006.84
2023-11-25 23:31:00,SystemResetWarning,0828.2,5.01,000.00,018.8,017.9,000.0,027.2,020.0,12.4,0001.6,0007.22,0009.45,0006.85
2023-11-25 23:32:00,SystemResetWarning,0828.3,5.01,000.00,018.8,017.9,000.0,027.2,020.0,12.5,0001.4,0007.23,0009.51,0006.86
2023-11-25 23:33:00,SystemResetWarning,0828.3,5.01,000.00,018.8,017.9,000.0,027.2,020.0,12.5,0001.4,0007.20,0009.44,0006.86
2023-11-25 23:34:00,SystemResetWarning,0828.3,5.00,000.00,018.8,017.9,000.0,027.2,020.0,12.5,0001.4,0007.18,0009.42,0006.87
2023-11-25 23:35:00,SystemResetWarning,0828.3,4.99,000.00,018.8,017.9,000.0,027.2,020.0,12.5,0001.1,0007.17,0009.40,0006.87
2023-11-25 23:36:00,SystemResetWarning,0828.2,5.00,000.00,018.8,017.9,000.0,027.2,020.0,12.5,0001.4,0007.18,0009.38,0006.88
2023-11-25 23:37:00,SystemResetWarning,0828.2,5.00,000.00,018.8,017.8,000.0,027.2,020.0,12.6,0001.8,0007.17,0009.34,0006.89
2023-11-25 23:38:00,SystemResetWarning,0828.2,4.99,000.00,018.8,017.8,000.0,027.3,020.0,12.5,0001.9,0007.19,0009.70,0006.90
2023-11-25 23:39:00,SystemResetWarning,0828.3,5.00,000.00,018.8,017.8,000.0,027.3,020.0,12.5,0002.0,0007.22,0010.63,0006.92
2023-11-25 23:40:00,SystemResetWarning,0828.3,5.00,000.00,018.8,017.8,000.0,027.3,020.0,12.5,0002.4,0007.26,0011.10,0006.94
2023-11-25 23:41:00,SystemResetWarning,0828.3,5.00,000.00,018.8,017.7,000.0,027.3,020.0,12.4,0002.2,0007.30,0011.28,0006.96
2023-11-25 23:42:00,SystemResetWarning,0828.4,5.00,000.00,018.8,017.7,000.0,027.3,020.0,12.5,0002.1,0007.35,0011.32,0006.98
2023-11-25 23:43:00,SystemResetWarning,0828.4,4.99,000.00,018.8,017.7,000.0,027.3,020.0,12.5,0002.1,0007.39,0011.33,0007.01
2023-11-25 23:44:00,SystemResetWarning,0828.4,5.00,000.00,018.8,017.7,000.0,027.2,020.0,12.5,0002.1,0007.41,0011.34,0007.02
2023-11-25 23:45:00,SystemResetWarning,0828.3,4.99,000.00,018.8,017.7,000.0,027.3,020.0,12.5,0002.3,0007.44,0011.46,0007.03
2023-11-25 23:46:00,SystemResetWarning,0828.3,5.00,000.00,018.8,017.7,000.0,027.2,020.0,12.4,0002.6,0007.46,0011.47,0007.04
2023-11-25 23:47:00,SystemResetWarning,0828.4,5.00,000.00,018.8,017.7,000.0,027.2,020.0,12.4,0002.6,0007.49,0011.48,0007.06
2023-11-25 23:48:00,SystemResetWarning,0828.4,5.00,000.00,018.8,017.7,000.0,027.2,020.0,12.4,0002.2,0007.53,0011.54,0007.08
2023-11-25 23:49:00,SystemResetWarning,0828.4,5.00,000.00,018.8,017.7,000.0,027.2,020.0,12.4,0002.0,0007.55,0011.54,0007.09
2023-11-25 23:50:00,SystemResetWarning,0828.4,4.99,000.00,018.8,017.7,000.0,027.2,020.0,12.4,0001.9,0007.56,0010.67,0007.08
2023-11-25 23:51:00,SystemResetWarning,0828.4,5.01,000.00,018.8,017.7,000.0,027.2,020.0,12.4,0001.4,0007.55,0010.11,0007.07
2023-11-25 23:52:00,SystemResetWarning,0828.3,5.01,000.00,018.7,017.7,000.0,027.2,020.0,12.4,0001.4,0007.57,0010.28,0007.08
2023-11-25 23:53:00,SystemResetWarning,0828.3,5.01,000.00,018.7,017.7,000.0,027.2,020.0,12.5,0001.4,0007.56,0010.61,0007.08
2023-11-25 23:54:00,SystemResetWarning,0828.4,5.01,000.00,018.7,017.7,000.0,027.2,020.0,12.5,0001.6,0007.55,0011.03,0007.07
2023-11-25 23:55:00,SystemResetWarning,0828.4,4.99,000.00,018.7,017.7,000.0,027.2,020.0,12.5,0001.5,0007.53,0010.97,0007.07
2023-11-25 23:56:00,SystemResetWarning,0828.4,4.99,000.00,018.7,017.7,000.0,027.2,020.0,12.5,0001.1,0007.52,0010.86,0007.08
2023-11-25 23:57:00,SystemResetWarning,0828.4,5.00,000.00,018.7,017.7,000.0,027.2,020.0,12.5,0000.9,0007.51,0011.00,0007.08
2023-11-25 23:58:00,SystemResetWarning,0828.4,5.00,000.00,018.7,017.7,000.0,027.2,020.0,12.5,0000.9,0007.52,0011.50,0007.09
2023-11-25 23:59:00,SystemResetWarning,0828.4,5.00,000.00,018.7,017.7,000.0,027.2,020.0,12.5,0001.1,0007.53,0011.49,0007.10
